Location: Newark
(33.9035°S, 18.4112°E)
Time: 01:41:02
(UTC+00:00)

STARLINK-1089 - Pass Details

Date: 23 January 2020
Orbit: 348 x 351 km, 53.0° (Epoch: 17 February)

Event Time Altitude Azimuth Distance (km) Brightness Sun altitude
Exits shadow 02:02:24 46° 174° (S) 491 3.6 -20.8°
Drops below altitude 10° 02:04:46 10° 143° (SE) 1,342 6.8 -20.4°
Sets 02:06:49 0° 138° (SE) 2,192 8.3 -20.1°
